Location: College Park
(38.9810°N, 76.9370°W)
Time: 08:40:16
(UTC-04:00)

Hubble Space Telescope - Visible Passes

Search period start: 20 October 2017 00:00
Search period end: 30 October 2017 00:00
Orbit: 537 x 541 km, 28.5° (Epoch: 19 October)

Date Brightness Start Highest point End Pass type
(mag) Time Alt. Az. Time Alt. Az. Time Alt. Az.
20 Oct 3.4 20:28:52 10° SSW 20:29:13 11° SSW 20:29:13 11° SSW visible
21 Oct 3.1 20:18:16 10° SSW 20:19:41 14° S 20:19:41 14° S visible
22 Oct 2.8 20:07:47 10° SSW 20:10:06 17° S 20:10:06 17° S visible
23 Oct 2.7 19:57:21 10° SW 20:00:11 18° S 20:00:30 18° SSE visible
24 Oct 2.6 19:46:59 10° SW 19:49:54 19° S 19:50:53 17° SSE visible
25 Oct 2.7 19:36:40 10° SW 19:39:37 19° S 19:41:17 15° SSE visible
26 Oct 2.8 19:26:24 10° SW 19:29:19 19° S 19:31:41 12° SE visible
27 Oct 2.9 19:16:10 10° SW 19:19:02 18° S 19:21:54 10° SE visible
28 Oct 3.0 19:05:59 10° SW 19:08:44 17° S 19:11:29 10° SE visible
29 Oct 3.2 18:55:52 10° SW 18:58:26 16° S 19:01:00 10° SSE visible
